sat.trackr.live / text

‹ back to catalog

STARLINK-6348

NORAD 57360 · 2023-099AJ

PAYLOAD ACTIVE UNKNOWN

§ Identity

Operator
Country
US
Launch date
2023-07-16
Launch site
AFETR
Launch vehicle
Mass (kg)
RCS (m²)

Purposes: comms

External: N2YO · Heavens-Above · Gunter

§ Orbital elements

Epoch: 2026-05-25T01:33:26.966880Z

Period
94.27 min
Inclination
43.0027°
Eccentricity
0.0001753
Mean motion
15.27579234 rev/d
Perigee alt
481.8 km
Apogee alt
484.3 km
Semi-major
6,861.2 km
B*
3.5183e-5
RAAN
170.0348°
Arg perigee
271.3635°
Mean anomaly
88.7016°
Rev number
15,788

§ Raw data

STARLINK-63481 57360U 23099AJ  26145.06489545  .00000706  00000+0  35183-4 0  99992 57360  43.0027 170.0348 0001753 271.3635  88.7016 15.27579234157889

JSON: /api/v1/satellites/57360 · /tle

For live sub-satellite position, see the globe view (requires WebGL).

§ Visibility from observer

Set your observer location to see the next 7 days of passes ≥ 10°. The values pass through the URL so the page stays shareable.

No JS? Fill the form by hand. The geolocation button needs JavaScript.